Wind_Speed
2 4 7 8 5 3 6 4 4 2 1 3 4 6 12 9 6 10 9 9 9 10 13 15 19 22 24 30 34 34 34 37 37 36 33 32 33 31 34 33 32 31 31 33
4 5 7 7 6 5 4 4 3 1 2 2 4 9 10 8 9 6 7 9 9 8 8 12 12 10 16 23 28 33 36 36 38 38 40 31 31 33 35 35 35 35 34 34
6 2 9 6 4 6 2 5 4 3 2 4 5 9 6 5 3 6 5 4 4 7 8 8 10 9 5 9 18 23 30 35 37 38 31 28 26 27 29 35 31 35 35 36
3 3 7 5 4 5 6 7 4 6 3 2 3 5 6 5 9 7 8 8 7 8 7 6 11 15 16 14 4 9 18 25 31 33 32 35 30 27 33 31 31 31 35 36
5 8 6 4 5 7 4 7 5 3 4 4 3 2 7 5 4 5 8 8 8 8 6 8 11 14 16 17 15 9 2 11 19 26 31 34 30 27 27 28 31 32 32 35
3 1 3 6 4 2 9 7 7 5 3 1 5 5 5 2 3 2 5 7 7 7 8 9 17 23 24 22 21 18 13 6 3 14 21 30 32 30 26 26 26 30 31 32
2 1 1 3 7 4 4 6 2 2 2 5 1 3 8 3 1 2 5 5 6 7 8 9 11 21 26 27 26 23 19 15 9 2 11 19 26 27 28 29 28 29 30 31
7 4 8 4 6 9 6 7 5 7 4 2 3 5 5 1 6 5 5 3 5 8 7 8 12 18 23 26 27 26 25 22 16 9 4 8 13 19 23 24 25 27 28 30
5 3 1 1 3 7 6 5 5 7 3 3 4 6 3 5 6 6 5 6 7 7 7 7 13 20 24 26 26 25 23 21 20 17 13 10 9 11 15 18 21 23 23 25
7 4 2 1 3 4 4 8 4 3 3 3 3 4 4 6 8 4 5 7 6 6 9 9 16 22 24 25 26 26 25 24 21 18 16 15 14 12 13 15 16 20 21 21
5 4 1 3 6 8 3 3 3 5 4 5 2 6 5 10 9 8 6 5 6 7 7 7 14 20 22 25 27 27 28 28 27 26 23 20 17 16 16 18 18 18 19 19
6 5 4 7 2 2 1 6 6 5 5 1 3 5 4 10 9 7 6 5 5 5 6 6 13 19 23 24 25 25 26 27 27 26 25 23 21 20 20 20 21 20 21 20
7 3 3 3 3 2 4 4 4 5 3 7 6 5 3 6 7 5 5 4 3 4 7 6 12 15 17 19 21 22 23 24 25 24 24 24 25 26 27 27 26 25 24 24
4 3 8 11 4 6 6 5 5 6 4 5 6 7 6 5 5 5 4 4 5 4 4 3 4 6 9 11 15 17 19 23 25 24 22 21 21 22 23 24 26 26 26 26
3 5 4 4 5 3 3 7 9 10 13 10 10 11 18 14 7 8 7 5 5 5 4 4 4 6 10 11 17 23 25 25 26 25 24 24 24 23 22 23 23 23 23 23
3 3 3 3 0 5 1 5 7 2 2 1 3 4 6 5 8 6 7 7 6 5 3 3 5 11 17 21 23 24 26 27 27 27 27 27 28 27 27 28 28 27 26 25
2 4 2 4 2 5 5 12 8 5 4 6 7 6 7 3 4 4 6 5 5 5 4 5 6 9 13 16 18 20 22 23 24 25 26 27 29 30 29 30 30 30 30 29
5 4 2 2 2 3 4 4 3 7 4 8 3 5 7 6 5 5 4 5 4 2 3 4 6 10 13 15 16 19 21 23 25 26 27 28 30 30 30 30 28 28 28 27
4 4 3 4 3 5 3 5 7 7 8 12 8 9 5 5 4 2 6 3 4 4 1 3 4 7 9 12 14 17 20 21 22 24 26 28 29 30 32 32 32 30 28 28
3 6 2 4 5 7 4 2 5 5 5 4 7 9 9 7 3 4 4 5 2 2 2 3 5 6 9 10 12 14 17 18 20 22 25 25 25 27 29 29 30 30 25 26
4 2 6 2 3 7 6 5 2 6 7 1 5 7 7 4 3 1 5 3 3 4 4 6 7 10 11 11 12 15 17 19 20 25 26 25 26 26 25 27 26 26 25 26
8 7 4 3 2 9 8 3 9 4 2 4 5 5 6 5 4 3 4 5 7 8 8 10 12 14 12 11 13 15 18 19 23 25 28 30 29 28 27 24 27 25 24 24
4 5 6 8 6 1 6 3 3 3 5 4 6 5 5 4 3 2 4 6 9 11 12 11 13 14 11 10 12 16 19 22 24 25 27 27 26 24 18 21 25 26 24 21
3 3 3 3 3 4 6 4 4 5 6 6 5 4 3 2 4 5 5 4 8 11 13 11 11 14 16 16 16 18 21 23 23 25 25 26 25 24 20 22 23 23 23 21
4 8 6 2 2 5 1 4 7 7 7 6 4 3 1 2 5 5 4 1 2 5 7 8 11 15 22 20 18 20 22 23 25 26 27 27 25 22 23 23 21 22 19 16
5 6 5 5 9 5 7 9 6 7 5 5 5 3 1 2 3 4 2 7 8 12 14 15 18 20 21 23 25 24 22 23 25 28 28 27 27 25 20 22 23 12 9 9
Wind_Direction
26 112 186 196 170 123 135 130 164 227 341 157 227 268 279 288 284 276 269 275 276 272 277 283 274 260 249 244 240 238 235 235 230 222 218 220 222 224 231 233 237 238 240 239
59 208 206 122 143 118 122 128 181 2 49 120 9 286 268 274 261 250 292 295 286 295 309 319 317 276 247 245 241 237 236 236 233 226 226 218 223 227 232 236 237 239 237 238
151 222 141 130 143 135 142 161 172 149 40 56 353 306 326 301 303 335 300 285 326 300 320 343 5 23 1 270 252 244 242 239 237 231 223 221 224 231 235 237 232 238 240 241
185 133 140 129 168 131 174 199 143 132 93 217 19 276 309 320 328 9 10 36 11 12 13 21 31 37 35 35 8 255 245 243 241 238 225 224 221 220 229 231 232 232 237 239
219 164 141 138 194 166 197 122 125 91 99 87 327 56 271 8 30 11 13 11 8 1 8 24 31 46 47 44 42 36 309 242 239 237 232 229 226 232 237 243 242 241 239 241
141 83 147 163 82 107 153 78 53 55 85 337 231 153 281 211 182 48 14 11 6 16 21 31 46 52 50 47 44 40 37 31 252 235 238 234 237 237 240 241 240 248 249 249
107 160 159 127 87 43 84 88 22 0 3 219 1 109 240 243 341 35 89 28 358 12 33 27 25 28 37 39 38 36 35 35 30 295 241 241 245 251 254 254 251 249 252 252
151 207 172 188 166 164 181 158 157 192 195 233 69 226 259 89 92 109 100 95 21 33 27 32 28 32 30 30 30 29 29 29 27 22 337 265 258 259 263 267 268 266 264 267
144 228 64 76 139 148 187 191 156 106 17 56 208 276 310 106 69 90 87 55 30 27 30 36 34 33 25 24 25 23 25 29 29 21 14 3 332 302 291 288 283 279 277 277
201 119 5 137 101 34 156 155 81 5 134 234 276 281 208 151 151 152 61 52 32 41 33 26 30 30 33 34 30 32 30 30 27 23 15 6 355 342 329 314 306 299 291 286
139 103 293 124 213 160 134 177 77 126 147 164 162 252 211 168 162 144 115 76 36 30 35 28 33 42 39 37 33 30 28 25 23 20 15 8 360 348 338 330 325 318 309 307
185 124 157 202 254 222 233 182 154 149 210 213 146 259 260 149 155 131 129 75 35 38 49 44 40 39 38 35 33 29 25 22 17 13 8 6 1 355 349 341 332 321 316 314
182 195 82 9 351 359 203 187 137 108 89 192 143 252 52 140 130 132 129 99 96 59 45 39 41 42 37 31 27 25 22 19 14 12 8 1 355 348 345 338 332 328 323 316
87 114 184 211 169 140 184 181 178 151 169 190 218 146 226 216 163 175 155 152 129 101 65 44 46 40 35 29 25 19 14 13 9 9 8 5 1 355 347 340 335 332 328 323
127 185 118 52 75 106 147 171 176 193 214 191 214 186 200 198 186 180 173 163 139 102 73 45 15 10 20 19 13 9 7 5 3 3 4 2 357 354 349 345 341 335 330 326
3 119 117 146 244 50 155 203 180 186 161 148 171 241 222 131 130 152 173 166 145 128 90 32 22 20 16 10 2 358 358 357 357 357 356 353 351 351 350 347 343 340 337 333
74 126 112 201 54 80 281 221 183 176 191 148 212 184 154 157 170 170 166 148 129 94 35 12 11 9 3 359 353 350 348 347 348 349 350 350 348 347 347 344 341 339 336 333
137 101 49 138 109 196 276 18 127 188 196 224 184 160 169 171 181 165 172 168 143 113 16 355 349 345 347 344 342 340 343 344 344 344 344 346 344 342 341 340 337 336 333 333
152 123 106 153 209 316 257 200 163 169 244 215 207 160 165 131 110 261 205 162 142 165 235 279 303 311 320 327 330 332 332 332 334 336 336 338 339 336 336 336 333 333 331 327
70 91 136 141 159 207 224 232 160 124 279 206 189 158 152 138 151 251 167 159 138 204 230 249 280 286 298 309 310 311 316 321 327 327 325 327 330 330 328 328 327 327 326 322
138 144 168 184 190 286 242 209 199 106 237 219 133 136 134 135 172 150 83 318 310 270 264 283 273 281 289 295 300 305 312 321 320 320 319 323 328 328 328 325 327 325 323 322
175 161 173 126 115 259 171 93 167 190 67 113 94 100 112 113 127 168 239 258 255 234 259 259 263 275 292 301 309 310 314 321 320 321 322 321 325 328 328 326 330 331 327 321
207 191 175 182 205 214 176 138 152 133 129 133 118 126 117 108 146 218 207 217 237 243 264 269 270 286 304 326 330 317 321 319 319 319 320 320 321 324 319 321 327 327 327 316
264 183 159 113 187 193 165 94 115 129 124 126 123 114 78 337 317 288 271 240 236 262 268 278 286 301 314 333 327 320 320 319 319 317 318 321 320 317 311 319 318 318 318 317
183 151 164 261 117 89 91 172 158 145 131 124 111 121 203 274 280 270 296 100 320 329 328 314 310 311 315 326 326 328 322 320 318 317 318 320 320 312 308 311 318 316 315 310
187 163 174 214 177 148 187 180 168 153 154 149 153 155 137 278 308 334 347 9 16 351 339 323 316 315 316 320 321 325 320 320 318 314 316 317 316 311 299 300 308 300 308 328
Height
798 807 815 810 810 811 822 821 822 821 820 820 825 831 821 811 812 810 808 806 804 801 793 794 794 794 796 799 803 807 811 813 818 822 825 829 829 833 836 836 838 841 844 847
806 811 803 806 811 812 818 820 822 820 820 822 828 826 819 812 806 803 802 804 803 798 794 792 790 789 790 793 795 799 803 809 812 815 817 822 824 827 829 831 833 836 839 841
802 796 801 804 813 815 818 824 822 820 826 827 832 829 822 807 806 805 801 801 802 799 797 793 790 790 789 791 793 796 799 803 807 810 815 818 821 822 825 826 828 829 832 835
796 798 803 807 813 814 825 817 816 824 832 842 839 851 827 815 815 808 809 807 806 802 798 797 794 793 791 790 790 792 794 797 801 806 810 811 812 814 814 818 821 824 826 828
797 801 804 806 805 808 813 814 821 827 841 840 843 852 828 822 808 808 812 811 808 806 802 799 796 795 794 792 791 790 790 792 796 799 804 807 810 812 814 816 818 820 822 824
795 794 794 798 806 803 817 822 835 847 850 855 846 846 835 820 811 807 814 816 812 806 803 800 799 797 796 795 794 793 792 792 793 796 800 804 806 808 810 812 814 815 817 819
797 797 797 796 808 810 811 823 849 854 867 855 851 851 830 810 808 812 816 816 814 809 804 802 801 799 798 796 796 796 795 795 796 796 799 802 805 807 808 809 811 812 813 814
802 809 800 795 797 809 816 816 841 857 866 848 852 845 824 814 815 817 816 813 813 810 807 805 804 804 802 801 799 798 798 798 798 799 800 801 803 805 806 807 808 808 809 810
796 794 793 793 793 793 812 819 819 853 921 876 843 829 813 817 822 821 818 815 814 812 810 810 808 807 805 803 802 802 801 801 800 800 800 801 802 803 803 805 806 806 805 806
779 793 799 796 792 798 799 809 826 849 867 867 839 832 821 822 823 822 820 817 814 813 812 811 810 810 808 807 807 804 804 803 802 801 801 801 801 801 802 802 802 802 801 799
777 781 803 798 798 801 806 809 816 819 834 852 864 830 812 811 818 820 817 814 817 816 817 818 816 814 812 810 808 807 805 804 803 803 802 801 801 800 800 799 799 798 796 794
772 785 809 798 793 794 791 796 799 815 832 850 841 825 807 809 816 815 814 815 817 819 818 818 817 816 814 814 812 811 810 808 807 806 804 802 800 798 796 796 796 794 791 788
769 787 825 801 796 796 794 796 797 806 820 837 834 818 813 814 814 813 814 818 820 820 819 819 818 818 818 818 817 816 815 812 810 807 805 803 800 798 794 793 791 789 785 782
762 778 776 773 776 788 796 797 796 792 816 804 814 814 814 817 815 816 819 819 820 820 821 821 819 818 819 819 818 818 818 814 813 811 808 806 802 798 796 793 789 784 781 778
764 772 782 788 787 783 785 791 795 791 782 791 786 800 797 804 811 816 816 818 817 818 818 818 818 817 817 817 815 813 811 810 810 809 806 804 801 797 794 791 787 783 779 775
774 781 785 794 793 795 788 790 793 794 794 793 797 800 794 798 807 814 814 815 815 816 816 816 815 813 813 812 810 809 808 807 805 803 801 798 796 793 790 786 781 778 775 771
779 783 784 784 801 795 791 782 794 795 794 792 793 789 798 800 801 803 809 809 811 811 812 813 813 814 814 813 812 810 808 807 804 801 798 796 793 789 786 783 779 775 771 768
786 791 796 813 805 791 778 787 783 785 787 787 785 792 793 797 799 802 805 806 807 809 811 811 812 813 813 813 813 811 808 804 801 799 796 793 790 786 783 780 777 773 769 766
776 789 815 801 810 804 783 782 790 784 779 780 781 794 797 801 803 802 804 806 808 810 811 812 812 813 812 811 811 809 806 805 803 799 795 793 790 785 781 777 773 769 765 762
784 783 792 836 812 817 779 780 781 778 795 774 779 789 799 803 807 807 803 806 808 809 810 811 812 812 811 810 810 809 807 804 801 798 795 792 789 784 779 775 771 767 764 759
783 791 790 838 825 816 790 784 781 803 793 791 783 790 798 803 802 802 803 804 805 806 808 809 810 809 809 808 807 805 804 801 798 795 791 788 785 781 777 772 768 764 760 756
766 776 789 815 813 790 779 781 780 779 784 783 785 789 794 798 802 804 805 805 805 807 807 807 807 807 806 805 803 802 800 798 794 791 786 782 779 775 771 767 763 760 758 753
771 764 774 773 771 768 775 769 773 777 781 782 787 790 792 794 798 801 802 804 804 804 804 803 804 803 803 802 800 798 796 792 789 785 782 779 775 772 770 765 762 758 755 752
774 771 772 769 769 768 770 770 773 776 779 781 783 786 788 791 795 797 799 801 802 802 801 802 801 799 798 799 798 796 793 790 786 782 778 775 772 768 766 763 761 756 752 748
767 769 779 782 772 773 772 771 774 777 779 781 783 786 788 792 793 794 795 798 799 799 799 799 798 797 795 795 793 792 788 785 781 777 774 770 767 764 760 758 755 752 749 746
756 758 760 765 759 758 765 769 769 773 775 778 781 786 789 790 792 792 793 795 797 797 796 795 793 791 789 788 787 787 784 781 777 772 769 766 763 761 757 754 751 750 748 745